Regional Weather Roundup
Issued by NWS

Home | Current Version | Previous Version | Graphics & Text | Print | Product List | Glossary Off
Versions: 1 2 3 4 5 6 7 8 9 10 11 12 13 14 15 16 17 18 19 20 21 22 23 24 25 26 27 28 29 30 31 32 33 34 35 36 37 38 39 40 41 42 43 44 45 46 47 48 49 50

000
ASUS43 KMKX 102320
RWRWI

WISCONSIN REGIONAL WEATHER ROUNDUP
NATIONAL WEATHER SERVICE MILWAUKEE/SULLIVAN WI
500 PM CST SUN DEC 10 2017

NOTE: "FAIR" INDICATES FEW OR NO CLOUDS BELOW 12,000 FEET WITH NO
SIGNIFICANT WEATHER AND/OR OBSTRUCTIONS TO VISIBILITY.

WIZ001-002-006>008-014>016-023>028-110000-
NORTHWEST WISCONSIN

CITY           SKY/WX    TMP DP  RH WIND       PRES   REMARKS
SUPERIOR ARPT  CLEAR     19  12  75 N7        30.06R WCI   9
ASHLAND        PTCLDY    13   7  77 N5        30.05R WCI   5
HAYWARD        CLOUDY    18  14  84 CALM      30.01S
SIREN          MOCLDY    22  16  76 CALM      30.04S
CUMBERLAND     CLOUDY    23  14  68 NW3       30.02R
RICE LAKE      PTCLDY    22  16  77 CALM      30.04R
CHETEK           N/A     20  16  84 CALM      30.03R
LADYSMITH      CLOUDY    22  15  74 NW7       30.03R WCI  13
EAU CLAIRE     CLOUDY    25  17  72 N3        30.04R
MENOMONIE      PTCLDY    27  19  73 W6        30.04R WCI  20
NEW RICHMOND   CLOUDY    26  19  74 CALM      30.04R
OSCEOLA        CLOUDY    27  19  72 CALM      30.07R
$$

WIZ003>005-009-010-017-018-110000-
NORTH CENTRAL WISCONSIN

CITY           SKY/WX    TMP DP  RH WIND       PRES   REMARKS
MANITOWISH WTR LGT SNOW  17  15  95 NW6       29.96R WCI   8
ARBOR VITAE    LGT SNOW  19  16  86 NW5       29.96R WCI  12
WOODRUFF       LGT SNOW  19  16  86 NW5       29.96R WCI  12
RHINELANDER    FLURRIES  19  13  77 N8        29.96R WCI   9
EAGLE RIVER    FLURRIES  18  11  76 NW8       29.94R WCI   7
LAND O LAKES   LGT SNOW  17  13  86 NW3       29.96R
PHILLIPS       CLOUDY    18  15  88 N3        29.98R
TOMAHAWK       FLURRIES  19  15  81 NW6       29.98R WCI  11
MEDFORD        CLOUDY    21  14  73 N9        29.97R WCI  10
MERRILL        CLOUDY    21  15  76 NW7       29.98R WCI  13
$$

WIZ029-030-035-036-043>047-110000-
CENTRAL WISCONSIN

CITY           SKY/WX    TMP DP  RH WIND       PRES   REMARKS
WAUSAU         CLOUDY    22  15  75 N8        29.97R WCI  12
MOSINEE        CLOUDY    23  18  80 NW8       29.99R WCI  14
MARSHFIELD     CLOUDY    23  16  74 NW10      29.99R WCI  12
STEVENS POINT  CLOUDY    23  15  74 NW5       30.00R WCI  16
WAUPACA        CLOUDY    28  19  69 W7        30.01R WCI  21
WAUTOMA        CLOUDY    25  18  74 NW5       30.02R WCI  19
WISC RAPIDS    CLOUDY    25  17  72 NW9       30.02R WCI  15
CAMP DOUGLAS   CLOUDY    26  18  71 NW5       30.02R WCI  21
$$

WIZ011>013-019>022-031-037>040-048>050-110000-
NORTHEAST WISCONSIN

CITY           SKY/WX    TMP DP  RH WIND       PRES   REMARKS
ANTIGO         FLURRIES  20  16  84 N8        29.96R WCI  10
SHAWANO        CLOUDY    27  17  64 NW6       29.99R WCI  21
OCONTO         CLOUDY    24  15  68 N5        30.00R WCI  18
STURGEON BAY   CLOUDY    25  15  66 NW10      29.98R WCI  15
GREEN BAY      CLOUDY    26  18  71 NW8       29.99R WCI  18
MANITOWOC      CLOUDY    25  18  74 NW8       29.99R WCI  16
APPLETON       CLOUDY    25  16  68 NW9       29.97R WCI  15
CLINTONVILLE   CLOUDY    27  18  69 NW7       29.99R WCI  19
OSHKOSH        CLOUDY    25  19  78 NW7       29.99R WCI  17
$$

WIZ032>034-041-042-053>061-110000-
SOUTHWEST WISCONSIN

CITY           SKY/WX    TMP DP  RH WIND       PRES   REMARKS
LA CROSSE      CLOUDY    28  20  71 NW7       30.05R WCI  21
SPARTA         CLOUDY    27  20  76 NW3       30.05R
VIROQUA        CLOUDY    26  22  85 NW6       30.02R WCI  19
BOSCOBEL       CLOUDY    30  20  66 N5        30.06R WCI  25
PRAIRIE DU CHI MOCLDY    29  20  67 W5        30.06R WCI  24
PLATTEVILLE    CLOUDY    29  23  78 NW7       30.02R WCI  22
$$

WIZ056-057-062-063-064-067-068-110000-
SOUTH CENTRAL WISCONSIN

CITY           SKY/WX    TMP DP  RH WIND       PRES   REMARKS
REEDSBURG      CLOUDY    27  18  69 NW8       30.02R WCI  19
BARABOO/DELLS  CLOUDY    27  18  69 NW5       30.02R WCI  21
LONE ROCK      MOCLDY    28  20  71 NW8       30.05R WCI  20
MINERAL POINT  CLOUDY    30  25  80 NW8       30.01R WCI  23
MADISON        MOCLDY    28  19  69 NW9       30.02R WCI  19
MIDDLETON      CLOUDY    30  20  68 NW10      30.02R WCI  21
WATERTOWN      CLOUDY    27  21  80 NW7       30.00R WCI  19
MONROE         CLOUDY    28  21  74 NW6       30.00R WCI  22
JANESVILLE     CLOUDY    30  19  64 NW7       30.00R WCI  23
$$

WIZ051-052-058>065-066-070>072-110000-
SOUTHEAST WISCONSIN

CITY           SKY/WX    TMP DP  RH WIND       PRES   REMARKS
MILWAUKEE      CLOUDY    28  19  69 NW9       30.00R WCI  19
WAUKESHA       CLOUDY    25  18  74 NW8       30.00R WCI  16
MILWAUKEE/TIMM CLOUDY    27  18  69 NW7       30.00R WCI  19
RACINE         CLOUDY    27  19  72 NW7       30.02R WCI  19
BURLINGTON     PTCLDY    33  31  91 NW6       30.00R WCI  28
KENOSHA        CLOUDY    28  19  69 NW9       30.00R WCI  19
FOND DU LAC    CLOUDY    26  17  68 NW6       30.00R WCI  19
SHEBOYGAN      CLOUDY    25  18  74 NW5       29.99R WCI  19
WEST BEND      CLOUDY    27  19  74 NW12      30.00R WCI  16
JUNEAU         CLOUDY    25  19  75 NW3       30.02R
$$

LSZ147-162-110000-
LAKE SUPERIOR

STATION/POSITION TIME  TEMP    WIND        PRES    WAVE
                       AIR SEA DIR/SP/G            HT/PER
                 (UTC) (F)     (DEG/KT/KT) (MB)    (FT/S)
DEVILS ISLAND    2300   22     290/  9/ 11 1018.6R
SAXON HARBOR     2240   21                 1016.9R
$$

LMZ867-665-643>646-110000-
LAKE MICHIGAN

STATION/POSITION TIME  TEMP    WIND        PRES    WAVE
                       AIR SEA DIR/SP/G            HT/PER
                 (UTC) (F)     (DEG/KT/KT) (MB)    (FT/S)
NORTHPORT PIER   2240   25     340/ 18/ 28 1014.6R
KEWAUNEE LAKESHO 2254   26     320/  8/ 14 1014.5R
SHEBOYGAN LAKESH 2300   26     310/  9/ 11 1016.6R
PORT WASHINGTON  2230   26     320/  6/  9 1016.6R
MILWAUKEE LAKESH 2300   28     340/  7/ 10   N/A
KENOSHA   LAKESH 2300   28     310/ 10/ 12 1016.3
$$

TC  - TEMPERATURE IN CELSIUS
VSB - VISIBILITY IN STATUTE MILES
WCI - WIND CHILL INDEX
HX  - HEAT INDEX




USA.gov is the U.S. government's official web portal to all federal, state and local government web resources and services.